Sisseton, SD

5:42 AM CST on February 28, 2017 (GMT -0600)
Sisseton

Weather History for K8D3 - October, 2013

Change the Weather History Date:

Tuesday, October 1, 2013

  Actual Average Record
Temperature  
Mean Temperature 59 °F 53 °F  
Max Temperature 72 °F 65 °F 90 °F (1992)
Min Temperature 45 °F 41 °F 22 °F (2003)
Degree Days  
Heating Degree Days 6 12  
Month to date heating degree days 6 12  
Since 1 July heating degree days 152 257  
Cooling Degree Days 0 0  
Month to date cooling degree days 0 0  
Year to date cooling degree days 625 523  
Growing Degree Days 10 (Base 50)    
Moisture  
Dew Point 39 °F    
Average Humidity 51    
Maximum Humidity 77    
Minimum Humidity 24    
Precipitation  
Precipitation 0.00 in 0.10 in 2.32 in (2009)
Month to date precipitation 0.00 0.10  
Year to date precipitation 21.31 19.38  
Snow  
Snow 0.00 in - - ()
Month to date snowfall  
Since 1 July snowfall  
Snow Depth -    
Sea Level Pressure  
Sea Level Pressure 29.80 in    
Wind  
Wind Speed 12 mph (WNW)    
Max Wind Speed 23 mph    
Max Gust Speed 31 mph    
T = Trace of Precipitation, MM = Missing Value Source: NWS Daily Summary

Daily Weather History Graph

Daily Weather History Graph

Search for Another Location

Airport or City:

Trip Planner

Search our weather history database for the weather conditions in past years. The results will help you decide how hot, cold, wet, or windy it might be!

Date:

Astronomy

Oct. 01, 2013 Rise Set
Actual Time 7:26 AM CDT 7:07 PM CDT
Civil Twilight 6:56 AM CDT 7:37 PM CDT
Nautical Twilight 6:22 AM CDT 8:11 PM CDT
Astronomical Twilight 5:47 AM CDT 8:46 PM CDT
Moon 3:53 AM CDT (10/1) 5:18 PM CDT (10/1)
Length of Visible Light 12h 40m
Length of Day
11h 41m
Waning Crescent, 12% of the Moon is Illuminated
Oct 1
Waning Crescent
Oct 4
New
Oct 11
First Quarter
Oct 18
Full
Oct 26
Last Quarter

Hourly Weather History & Observations

Time (CDT) Temp. Dew Point Humidity Pressure Visibility Wind Dir Wind Speed Gust Speed Precip Events Conditions
12:56 AM 66.0 °F 50.0 °F 56% 29.51 in - NNW 19.6 mph 39.1 mph N/A   Unknown
1:56 AM 61.0 °F 50.0 °F 67% 29.53 in - NNW 15.0 mph 20.7 mph N/A   Unknown
2:56 AM 60.1 °F 50.0 °F 69% 29.58 in - NNW 13.8 mph 21.9 mph N/A   Unknown
3:56 AM 59.0 °F 45.0 °F 60% 29.62 in - NW 12.7 mph 20.7 mph N/A   Unknown
4:56 AM 57.0 °F 42.1 °F 57% 29.67 in - NW 9.2 mph - N/A   Unknown
5:56 AM 55.9 °F 41.0 °F 57% 29.72 in - NW 10.4 mph - N/A   Unknown
6:56 AM 55.0 °F 39.0 °F 55% 29.76 in - NW 11.5 mph - N/A   Unknown
7:56 AM 55.0 °F 39.0 °F 55% 29.79 in - WNW 12.7 mph 18.4 mph N/A   Unknown
8:56 AM 57.9 °F 39.0 °F 49% 29.82 in - NW 13.8 mph - N/A   Unknown
9:56 AM 62.1 °F 37.0 °F 39% 29.83 in - WNW 18.4 mph 23.0 mph N/A   Unknown
10:56 AM 64.9 °F 35.1 °F 33% 29.85 in - NW 18.4 mph 24.2 mph N/A   Unknown
11:56 AM 66.9 °F 37.0 °F 33% 29.86 in - West 17.3 mph - N/A   Unknown
12:56 PM 69.1 °F 35.1 °F 29% 29.84 in - WNW 15.0 mph 23.0 mph N/A   Unknown
1:56 PM 70.0 °F 35.1 °F 28% 29.85 in - WNW 16.1 mph - N/A   Unknown
2:56 PM 71.1 °F 34.0 °F 26% 29.85 in - WNW 20.7 mph 28.8 mph N/A   Unknown
3:56 PM 71.1 °F 34.0 °F 26% 29.85 in - WNW 18.4 mph 24.2 mph N/A   Unknown
4:56 PM 71.1 °F 32.0 °F 24% 29.86 in - WNW 15.0 mph - N/A   Unknown
5:56 PM 70.0 °F 33.1 °F 26% 29.86 in - WNW 9.2 mph 18.4 mph N/A   Unknown
6:56 PM 62.1 °F 36.0 °F 38% 29.88 in - West 5.8 mph - N/A   Unknown
7:56 PM 55.0 °F 39.0 °F 55% 29.92 in - WSW 5.8 mph - N/A   Unknown
8:56 PM 55.0 °F 39.0 °F 55% 29.93 in - West 8.1 mph - N/A   Unknown
9:56 PM 51.1 °F 41.0 °F 68% 29.94 in - WSW 4.6 mph - N/A   Unknown
10:56 PM 48.9 °F 41.0 °F 74% 29.96 in - SW 4.6 mph - N/A   Unknown
11:56 PM 48.0 °F 39.9 °F 74% 29.96 in - SW 6.9 mph - N/A   Unknown